NOAA NWS Hourly Roundups by Site

Regional Weather Roundup for Omaha, NE

To Select Another Site Choose from List

Select Site:  

000
ASUS43 KOAX 232010
RWRNE

WEATHER ROUNDUP FOR NEBRASKA
NATIONAL WEATHER SERVICE OMAHA NE
300 PM CDT TUE OCT 23 2018

NOTES: SATELLITE DATA IS BEING USED TO AUGMENT CLOUD COVER ABOVE
       12000 FEET.
       "FAIR" INDICATES FEW OR NO CLOUDS BELOW 12,000 FEET WITH NO
       SIGNIFICANT WEATHER AND/OR OBSTRUCTIONS TO VISIBILITY.

  * THESE STATIONS DO NOT REPORT WEATHER SUCH AS RAIN...SNOW OR FOG.

NEZ001>004-019>022-054>056-232100-
NEBRASKA PANHANDLE

CITY           SKY/WX    TMP DP  RH WIND       PRES   REMARKS
SCOTTSBLUFF    LGT RAIN  62  46  55 SE17G24   30.17F
ALLIANCE       LGT RAIN  61  44  53 S26       30.19F
KIMBALL        CLOUDY    61  42  49 S21G30    30.19F
SIDNEY         PTSUNNY   62  44  51 S18G26    30.21F
$$

NEZ057>060-069>072-079>082-232100-
SOUTHWEST NEBRASKA

CITY           SKY/WX    TMP DP  RH WIND       PRES   REMARKS
NORTH PLATTE   MOSUNNY   66  38  35 SE14G22   30.26F
IMPERIAL       PTSUNNY   66  40  38 SE17G26   30.23F
LEXINGTON      MOSUNNY   64  33  32 SE14      30.28F
MC COOK        MOSUNNY   67  43  41 SE13G23   30.25F
OGALLALA       PTSUNNY   65  44  45 SE16G22   30.24F
$$

NEZ005>010-023>029-035>040-094-232100-
NORTH CENTRAL NEBRASKA

CITY           SKY/WX    TMP DP  RH WIND       PRES   REMARKS
VALENTINE      SUNNY     66  29  24 SE18G25   30.25F
AINSWORTH      SUNNY     61  29  30 S14G21    30.28F
BROKEN BOW     SUNNY     62  31  31 E15       30.29F
O`NEILL        SUNNY     61  28  29 S8        30.32F
ORD            SUNNY     62  30  29 E12       30.30F
THEDFORD       SUNNY     64  33  30 SE16G22   30.27F
$$

NEZ041-046>049-061>064-073>077-083>087-232100-
SOUTH CENTRAL NEBRASKA

CITY           SKY/WX    TMP DP  RH WIND       PRES   REMARKS
GRAND ISLAND   SUNNY     63  30  28 E10       30.32F
AURORA         SUNNY     63  29  27 SE9       30.31F
HASTINGS       SUNNY     63  32  31 SE13      30.31F
HEBRON         SUNNY     65  30  26 E9        30.30F
HOLDREGE       SUNNY     63  38  38 E13G23    30.29F
KEARNEY *      SUNNY     63  30  28 SE15      30.30
YORK           SUNNY     59  30  33 E9        30.32F
$$

NEZ011>018-030>034-042>045-232100-
NORTHEAST NEBRASKA

CITY           SKY/WX    TMP DP  RH WIND       PRES   REMARKS
NORFOLK        SUNNY     57  27  31 SE8       30.32F
ALBION         SUNNY     61  30  31 E9        30.32F
BLAIR          FAIR      58  28  31 NE7       30.35F
COLUMBUS *     SUNNY     60  29  30 E8        30.34F
FREMONT        SUNNY     60  26  28 CALM      30.36F
TEKAMAH        SUNNY     58  26  29 NE8       30.35F
$$

NEZ050>053-065>068-078-088>093-232100-
SOUTHEAST NEBRASKA

CITY           SKY/WX    TMP DP  RH WIND       PRES   REMARKS
LINCOLN        SUNNY     62  29  28 VRB5      30.34F
OMAHA EPPLEY   SUNNY     62  23  22 CALM      30.35F
BEATRICE       SUNNY     64  31  28 E10       30.31F
FALLS CITY     SUNNY     63  30  28 E9        30.32F
NEBRASKA CITY  SUNNY     60  18  19 NE9       30.33F
PLATTSMOUTH    SUNNY     60  27  28 CALM      30.35F
$$

NEZ044-045-051>053-067-232100-
OMAHA AREA

CITY           SKY/WX    TMP DP  RH WIND       PRES   REMARKS
EPPLEY FIELD   SUNNY     62  23  22 CALM      30.35F
BLAIR          SUNNY     58  28  31 NE7       30.35F
FREMONT        SUNNY     60  26  28 CALM      30.36F
MILLARD        SUNNY     60  31  33 SE5       30.35F
OFFUTT AFB     SUNNY     61  27  27 E6        30.34F
PLATTSMOUTH    SUNNY     60  27  28 CALM      30.35F
WAHOO          FAIR      60  28  29 E6        30.35F
$$


 

View Past Reports for Omaha, NE.

Products Courtesy of NOAA-NWS
NWS Information Parsing Script by Ken True at Saratoga Weather - Script by SE Lincoln Weather.